Regional Weather Roundup
Issued by NWS

Home | Current Version | Previous Version | Graphics & Text | Print | Product List | Glossary Off
Versions: 1 2 3 4 5 6 7 8 9 10 11 12 13 14 15 16 17 18 19 20 21 22 23 24 25 26 27 28 29 30 31 32 33 34 35 36 37 38 39 40 41 42 43 44 45 46 47 48 49 50

000
ASUS43 KTOP 061859
RWRKS

WEATHER ROUNDUP FOR KANSAS
NATIONAL WEATHER SERVICE GOODLAND KS
100 PM CST SAT FEB 06 2016

NOTE:  "FAIR" INDICATES FEW OR NO CLOUDS BELOW 12,000 FEET WITH NO
SIGNIFICANT WEATHER AND/OR OBSTRUCTIONS TO VISIBILITY.

KSZ001>006-013>018-027>032-041>047-062000-
NORTHWEST KANSAS

CITY           SKY/WX    TMP DP  RH WIND       PRES   REMARKS
GOODLAND       CLOUDY    40  20  44 SW16      30.18F WCI  31
HAYS           SUNNY     36  19  51 SW9       30.26F
HILL CITY      SUNNY     40  23  50 SW14      30.22F WCI  32
RUSSELL        SUNNY     35  25  66 SW14      30.26F WCI  26
$$

KSZ061>065-074>080-084>089-062000-
SOUTHWEST KANSAS

CITY           SKY/WX    TMP DP  RH WIND       PRES   REMARKS
DODGE CITY     SUNNY     47  17  30 W14       30.29F
ELKHART          N/A     50  14  23 S8          N/A
GARDEN CITY    SUNNY     46  19  34 SW13      30.25F
GREAT BEND     SUNNY     45  25  45 W12       30.28F
LIBERAL        SUNNY     48  19  32 SW14      30.30F
$$

KSZ066>073-081>083-090>101-062000-
SOUTHEAST KANSAS

CITY           SKY/WX    TMP DP  RH WIND       PRES   REMARKS
CHANUTE        SUNNY     48  29  47 W7        30.31F
COFFEYVILLE    SUNNY     50  29  44 W8        30.33F
HUTCHINSON     SUNNY     47  26  44 SW13      30.30F
MEDICINE LODGE   N/A     48  23  37 SW6       30.31F
NEWTON         SUNNY     45  27  49 SW12G17   30.30F
PARSONS        SUNNY     48  30  49 VRB3      30.32F
WICHITA INTL   MOSUNNY   47  27  45 W7        30.31F
WICHITA JABRA  SUNNY     46  28  49 W10       30.30F
WINFIELD       SUNNY     48  28  46 W8        30.33F
$$

KSZ007>012-019>026-033>040-048>060-102>105-062000-
NORTHEAST KANSAS

CITY           SKY/WX    TMP DP  RH WIND       PRES   REMARKS
CONCORDIA      SUNNY     43  29  57 SW16      30.23F
EMPORIA        SUNNY     46  27  47 SW10      30.28F
LAWRENCE       SUNNY     46  31  55 S7        30.27F
MANHATTAN      SUNNY     45  30  55 SW14      30.27F
OLATHE IND     SUNNY     45  32  60 SW12      30.27F
OLATHE EXE     SUNNY     43  30  60 W7        30.26F
SALINA         SUNNY     49  24  37 SW9       30.28F
TOPEKA BILLARD SUNNY     46  30  53 SW9       30.27F
TOPEKA FORBES  SUNNY     48  29  47 W14       30.26F
$$



USA.gov is the U.S. government's official web portal to all federal, state and local government web resources and services.